Location: Poughquag
(41.6090°N, 73.6820°W)
Time: 12:43:28
(UTC-04:00)

Vanguard 2 Rocket - Pass Details

Date: 06 June 2020
Orbit: 556 x 3324 km, 32.9° (Epoch: 06 July)

Event Time Altitude Azimuth Distance (km) Brightness Sun altitude
Rises 18:33:26 0° 269° (W) 4,249 11.8 18.5°
Reaches altitude 10° 18:36:06 10° 260° (W) 3,586 11.4 18.0°
Maximum altitude 18:44:47 37° 198° (SSW) 2,892 9.6 16.5°
Drops below altitude 10° 18:58:38 10° 139° (SE) 5,676 10.5 14.0°
Sets 19:04:15 0° 133° (SE) 7,000 10.8 13.0°
